Weather reports worldwide

Advertisment
Dorans, France (7296): temperature & dewpoint: 18.06.2018 16:00:00 - 24.06.2018 16:00:00 (CEST)Dorans, France (7296): temperature 5cm: 18.06.2018 16:00:00 - 24.06.2018 16:00:00 (CEST)Dorans, France (7296): temperature -20cm & temperature -100cm: 18.06.2018 16:00:00 - 24.06.2018 16:00:00 (CEST)Dorans, France (7296): wind speed & gusts: 18.06.2018 16:00:00 - 24.06.2018 16:00:00 (CEST)Dorans, France (7296): wind direction: 18.06.2018 16:00:00 - 24.06.2018 16:00:00 (CEST)Dorans, France (7296): reduced air pressure: 18.06.2018 16:00:00 - 24.06.2018 16:00:00 (CEST)Dorans, France (7296): visibility: 18.06.2018 16:00:00 - 24.06.2018 16:00:00 (CEST)Dorans, France (7296): precipitation: 18.06.2018 16:00:00 - 24.06.2018 16:00:00 (CEST)
Date & Time tt [°C] td [°C] tt 5cm [°C] tt -20cm [°C] tt -100cm [°C] ff [km/h] ff [kn] fx [km/h] fx [kn] dd ppp [hPa] vv [km] rr [mm]
24.06.2018 16:00:00 19,9 10,0 22,3 20,2 17,5 8 4 18 10 N 1019,5 19 0,0
24.06.2018 15:00:00 19,3 9,5 23,9 20,0 17,5 8 4 26 14 E 1019,8 20 0,0
24.06.2018 14:00:00 19,2 8,8 24,8 19,8 17,5 6 3 23 12 E 1020,4 20 0,0
24.06.2018 13:00:00 18,1 8,9 21,0 19,7 17,5 10 6 27 15 E 1020,9 20 0,0
24.06.2018 12:00:00 17,5 8,6 18,0 19,7 17,5 14 7 26 14 ENE 1021,4 20 0,0
24.06.2018 11:00:00 15,7 8,2 17,4 19,7 17,5 16 8 29 16 ENE 1021,6 20 0,0
24.06.2018 10:00:00 15,6 8,8 16,0 19,7 17,5 13 7 26 14 E 1021,6 20 0,0
24.06.2018 09:00:00 14,2 8,6 13,3 19,8 17,6 13 7 24 13 E 1022,1 20 0,0
24.06.2018 08:00:00 12,4 7,9 11,3 19,9 17,5 9 5 19 11 E 1022,3 20 0,0
24.06.2018 07:00:00 11,5 7,6 9,7 20,0 17,5 10 6 19 10 ESE 1022,3 20 0,0
24.06.2018 06:00:00 11,1 7,6 9,6 20,1 17,5 8 5 16 9 SE 1022,3 20 0,0
24.06.2018 05:00:00 11,8 7,5 10,6 20,3 17,6 7 4 23 12 E 1022,2 20 0,0
24.06.2018 04:00:00 12,0 7,9 10,5 20,5 17,5 9 5 19 11 ESE 1022,5 19 0,0
24.06.2018 03:00:00 12,2 8,3 10,6 20,6 17,5 9 5 21 12 ESE 1022,9 20 0,0
24.06.2018 02:00:00 12,4 8,3 10,2 20,8 17,6 6 3 13 7 E 1023,2 20 0,0
24.06.2018 01:00:00 12,9 8,2 9,8 21,0 17,6 6 3 10 6 E 1023,4 20 0,0
24.06.2018 00:00:00 13,6 7,8 10,2 21,2 17,6 5 3 8 4 NNE 1023,6 20 0,0
23.06.2018 23:00:00 14,6 7,9 11,8 21,3 17,5 7 4 15 8 E 1023,5 20 0,0
23.06.2018 22:00:00 15,6 8,6 12,9 21,4 17,5 7 4 14 8 ESE 1023,2 20 0,0
23.06.2018 21:00:00 16,9 8,3 15,3 21,4 17,5 7 4 25 14 E 1022,9 20 0,0
23.06.2018 20:00:00 18,4 8,1 18,0 21,3 17,6 14 8 29 15 E 1022,5 20 0,0
23.06.2018 19:00:00 20,1 8,4 21,2 21,2 17,6 9 5 21 11 ENE 1022,3 20 0,0
23.06.2018 18:00:00 20,2 7,9 21,4 20,9 17,5 9 5 22 12 ENE 1022,4 20 0,0
23.06.2018 17:00:00 21,0 7,2 26,7 20,6 17,5 12 7 27 15 ENE 1022,6 19 0,0
23.06.2018 16:00:00 20,8 7,1 26,7 20,4 17,5 12 6 35 19 ESE 1022,8 20 0,0
23.06.2018 15:00:00 19,3 5,7 24,9 20,1 17,5 12 6 27 15 E 1023,7 20 0,0
23.06.2018 14:00:00 19,1 6,2 24,5 19,8 17,5 12 7 30 16 E 1024,3 19 0,0
23.06.2018 13:00:00 18,1 6,3 22,1 19,6 17,5 13 7 31 17 E 1024,7 20 0,0
23.06.2018 12:00:00 17,1 6,3 20,1 19,6 17,5 16 9 30 16 E 1025,0 20 0,0
23.06.2018 11:00:00 15,8 6,5 18,0 19,6 17,5 16 9 31 17 E 1025,4 20 0,0
23.06.2018 10:00:00 15,0 7,3 15,7 19,6 17,5 14 8 32 18 E 1025,7 20 0,0
23.06.2018 09:00:00 13,4 7,6 12,6 19,7 17,5 15 8 29 16 ENE 1026,1 20 0,0
23.06.2018 08:00:00 11,2 6,9 9,5 19,9 17,5 7 4 16 8 E 1026,5 20 0,0
23.06.2018 07:00:00 9,4 7,0 5,0 20,1 17,5 6 3 9 5 ESE 1026,6 20 0,0
23.06.2018 06:00:00 7,4 5,5 4,9 20,3 17,5 4 2 5 3 NE 1026,8 20 0,0
23.06.2018 05:00:00 7,3 5,4 5,2 20,5 17,5 3 2 6 3 ENE 1026,5 20 0,0
23.06.2018 04:00:00 8,1 5,9 5,6 20,7 17,5 4 2 5 3 NE 1026,7 20 0,0
23.06.2018 03:00:00 9,5 6,0 6,3 21,0 17,5 5 3 7 4 ENE 1026,8 20 0,0
23.06.2018 02:00:00 10,8 6,2 7,2 21,2 17,5 5 3 8 5 ENE 1026,5 20 0,0
23.06.2018 01:00:00 11,1 6,4 7,4 21,4 17,5 5 3 11 6 E 1026,9 20 0,0
23.06.2018 00:00:00 11,9 6,2 9,2 21,6 17,5 8 4 13 7 ENE 1026,9 20 0,0
22.06.2018 23:00:00 12,7 6,1 10,1 21,7 17,5 9 5 17 9 ENE 1026,7 20 0,0
22.06.2018 22:00:00 14,3 6,4 12,0 21,8 17,5 6 3 15 8 ESE 1026,1 20 0,0
22.06.2018 21:00:00 15,9 6,0 14,8 21,9 17,5 10 6 28 15 ENE 1025,4 20 0,0
22.06.2018 20:00:00 16,2 6,9 16,3 21,9 17,5 17 9 34 19 NE 1025,1 20 0,0
22.06.2018 19:00:00 17,8 6,9 17,7 21,8 17,5 20 11 36 20 ENE 1024,6 20 0,0
22.06.2018 18:00:00 17,9 6,4 18,7 21,8 17,5 13 7 31 17 E 1024,5 20 0,0
22.06.2018 17:00:00 17,9 6,4 19,4 21,5 17,5 12 6 26 14 E 1024,4 20 0,0
22.06.2018 16:00:00 18,6 5,8 23,4 21,3 17,4 7 4 25 13 E 1024,1 20 0,0
22.06.2018 15:00:00 19,2 7,3 22,0 21,0 17,4 5 3 25 14 E 1024,0 19 0,0
22.06.2018 14:00:00 17,7 5,9 24,5 20,8 17,4 9 5 24 13 ESE 1024,9 20 0,0
22.06.2018 13:00:00 17,3 5,6 22,6 20,7 17,4 11 6 26 14 SE 1025,1 20 0,0
22.06.2018 12:00:00 16,2 3,6 19,8 20,6 17,4 11 6 27 15 E 1025,8 20 0,0
22.06.2018 11:00:00 15,6 4,3 17,9 20,6 17,4 10 5 30 16 E 1025,8 20 0,0
22.06.2018 10:00:00 14,5 3,6 15,4 20,7 17,4 8 4 24 13 E 1025,8 20 0,0
22.06.2018 09:00:00 13,4 4,3 13,6 20,9 17,4 14 8 23 13 NE 1026,0 20 0,0
22.06.2018 08:00:00 12,4 4,4 10,9 21,1 17,4 9 5 21 11 E 1025,8 20 0,0
22.06.2018 07:00:00 11,0 4,4 8,7 21,3 17,4 10 5 23 12 E 1025,5 20 0,0
22.06.2018 06:00:00 10,3 4,0 8,7 21,5 17,4 12 7 29 15 E 1025,3 20 0,0
22.06.2018 05:00:00 10,9 4,1 9,1 21,6 17,4 10 5 26 14 E 1024,8 20 0,0
22.06.2018 04:00:00 11,8 4,7 10,1 21,8 17,4 11 6 29 16 E 1024,2 20 0,0
22.06.2018 03:00:00 12,8 6,6 9,8 22,1 17,4 10 5 16 9 ESE 1023,6 20 0,0
22.06.2018 02:00:00 14,0 7,3 10,1 22,2 17,4 5 3 9 5 E 1022,9 20 0,0
22.06.2018 01:00:00 14,5 6,8 11,9 22,4 17,4 6 4 13 7 WNW 1022,5 20 0,0
22.06.2018 00:00:00 14,6 8,3 13,1 22,6 17,4 11 6 18 10 NW 1022,0 20 0,0
21.06.2018 23:00:00 16,8 9,5 15,0 22,7 17,4 9 5 22 12 WNW 1021,1 20 0,0
21.06.2018 22:00:00 18,2 10,3 16,6 22,8 17,4 11 6 23 13 WNW 1020,2 20 0,0
21.06.2018 21:00:00 19,5 12,0 18,4 22,8 17,4 10 5 34 18 W 1019,2 20 0,0
21.06.2018 20:00:00 21,0 12,7 21,2 22,8 17,3 14 8 36 20 WNW 1018,3 20 0,0
21.06.2018 19:00:00 22,9 13,9 24,3 22,7 17,4 19 10 44 24 NW 1017,4 20 0,0
21.06.2018 18:00:00 24,6 14,7 26,8 22,5 17,3 22 12 42 23 WNW 1016,6 20 0,0
21.06.2018 17:00:00 25,3 14,7 25,7 22,3 17,3 18 10 34 18 NW 1016,3 20 0,0
21.06.2018 16:00:00 25,8 14,0 28,4 22,1 17,3 16 9 35 19 NW 1016,4 20 0,0
21.06.2018 15:00:00 25,7 13,2 27,5 21,8 17,3 16 9 33 18 WNW 1016,6 20 0,0
21.06.2018 14:00:00 25,1 12,0 27,3 21,6 17,3 18 10 43 23 WNW 1017,0 20 0,0
21.06.2018 13:00:00 25,4 11,2 27,9 21,4 17,3 17 9 36 19 W 1017,2 20 0,0
21.06.2018 12:00:00 25,1 11,6 24,5 21,4 17,3 16 9 30 16 W 1017,2 20 0,0
21.06.2018 11:00:00 24,6 13,8 25,3 21,4 17,3 16 8 31 17 WNW 1017,3 20 0,0
21.06.2018 10:00:00 23,6 15,4 21,9 21,4 17,3 9 5 23 12 W 1017,1 20 0,0
21.06.2018 09:00:00 21,0 16,0 20,1 21,5 17,3 13 7 28 15 W 1017,5 20 0,0
21.06.2018 08:00:00 19,6 16,1 17,0 21,6 17,3 9 5 19 10 SW 1017,5 20 0,0
21.06.2018 07:00:00 17,8 15,4 14,8 21,8 17,3 5 3 11 6 SW 1017,8 20 0,0
21.06.2018 06:00:00 16,9 14,7 14,2 21,9 17,3 4 2 12 7 SW 1017,6 20 0,0
21.06.2018 05:00:00 16,9 14,7 14,3 22,1 17,3 3 2 11 6 WSW 1017,5 20 0,0
21.06.2018 04:00:00 17,2 15,4 14,9 22,3 17,3 7 4 10 5 WSW 1017,7 20 0,0
21.06.2018 03:00:00 17,9 15,3 15,5 22,4 17,3 4 2 9 5 W 1017,8 20 0,0
21.06.2018 02:00:00 19,5 14,9 16,3 22,5 17,3 5 3 10 6 W 1017,6 20 0,0
21.06.2018 01:00:00 19,7 15,6 16,9 22,7 17,3 4 2 9 5 SW 1018,0 20 0,0
21.06.2018 00:00:00 20,9 16,1 17,4 22,8 17,3 2 1 12 7 SE 1018,1 20 0,0
20.06.2018 23:00:00 23,6 15,4 20,7 22,9 17,3 8 4 12 7 WNW 1017,8 20 0,0
20.06.2018 22:00:00 24,6 15,5 20,8 22,9 17,3 6 3 9 5 WNW 1017,2 20 0,0
20.06.2018 21:00:00 25,2 14,3 22,6 22,8 17,2 5 3 8 4 W 1016,9 20 0,0
20.06.2018 20:00:00 29,5 17,0 26,9 22,7 17,2 4 2 8 4 NW 1016,2 20 0,0
20.06.2018 19:00:00 29,8 11,8 32,6 22,5 17,2 4 2 12 6 NNW 1016,6 20 0,0
20.06.2018 18:00:00 29,3 12,7 34,7 22,3 17,2 7 4 18 10 NE 1016,8 18 0,0
20.06.2018 17:00:00 29,4 13,2 35,2 21,9 17,3 5 3 20 11 SSE 1017,2 20 0,0
20.06.2018 16:00:00 28,8 14,6 35,7 21,6 17,2 8 4 21 12 E 1017,6 19 0,0
20.06.2018 15:00:00 28,3 13,8 32,8 21,3 17,2 11 6 28 15 E 1018,3 20 0,0
20.06.2018 14:00:00 27,3 14,0 32,3 21,0 17,3 13 7 29 16 E 1018,7 20 0,0
20.06.2018 13:00:00 26,5 13,9 30,3 20,8 17,2 11 6 25 14 E 1019,6 20 0,0
20.06.2018 12:00:00 25,6 16,2 27,2 20,7 17,2 12 7 27 15 E 1020,0 20 0,0
20.06.2018 11:00:00 24,0 15,2 25,4 20,7 17,2 13 7 21 11 E 1020,5 20 0,0
20.06.2018 10:00:00 22,3 16,1 22,8 20,7 17,2 14 8 22 12 ENE 1020,9 20 0,0
20.06.2018 09:00:00 20,5 15,3 19,3 20,8 17,2 8 5 16 8 E 1021,5 20 0,0
20.06.2018 08:00:00 18,4 14,9 16,2 20,9 17,2 8 4 13 7 ESE 1021,9 20 0,0
20.06.2018 07:00:00 17,0 15,2 13,6 21,1 17,2 3 2 7 4 NNE 1022,0 14 0,0
20.06.2018 06:00:00 15,2 14,4 12,6 21,2 17,2 2 1 7 4 NNE 1022,2 16 0,0
20.06.2018 05:00:00 15,4 14,3 12,6 21,4 17,2 3 2 7 4 E 1022,2 18 0,0
20.06.2018 04:00:00 15,7 14,1 13,3 21,5 17,2 2 1 9 5 E 1022,2 20 0,0
20.06.2018 03:00:00 16,4 14,6 13,3 21,7 17,2 6 3 9 5 SSE 1022,3 20 0,0
20.06.2018 02:00:00 17,1 14,9 13,9 21,9 17,2 5 3 10 5 SE 1022,4 20 0,0
20.06.2018 01:00:00 18,0 15,1 14,5 22,0 17,2 6 3 9 5 SE 1022,4 20 0,0
20.06.2018 00:00:00 19,1 15,2 16,4 22,1 17,2 5 3 17 9 E 1022,4 20 0,0
19.06.2018 23:00:00 20,0 15,2 17,8 22,2 17,2 8 4 19 10 E 1022,5 20 0,0
19.06.2018 22:00:00 21,2 15,3 18,8 22,2 17,2 11 6 21 11 ENE 1021,8 20 0,0
19.06.2018 21:00:00 23,4 15,7 21,2 22,2 17,2 5 3 11 6 ENE 1021,4 20 0,0
19.06.2018 20:00:00 25,0 15,9 24,5 22,1 17,2 6 3 15 8 NE 1021,4 20 0,0
19.06.2018 19:00:00 26,0 14,5 29,3 21,8 17,2 6 3 18 10 ENE 1021,5 20 0,0
19.06.2018 18:00:00 25,8 14,3 27,6 21,6 17,2 10 5 22 12 ESE 1022,0 20 0,0
19.06.2018 17:00:00 26,5 14,6 28,3 21,3 17,2 8 5 24 13 E 1022,2 20 0,0
19.06.2018 16:00:00 25,6 14,4 30,4 21,0 17,2 10 5 23 12 E 1022,5 20 0,0
19.06.2018 15:00:00 25,6 14,4 30,5 20,7 17,2 9 5 24 13 ESE 1022,7 20 0,0
19.06.2018 14:00:00 24,7 13,6 30,3 20,4 17,2 10 5 26 14 ESE 1023,2 19 0,0
19.06.2018 13:00:00 23,9 14,9 28,7 20,2 17,2 7 4 21 11 NNW 1023,6 17 0,0
19.06.2018 12:00:00 23,1 12,7 25,3 20,1 17,2 7 4 20 11 E 1024,0 20 0,0
19.06.2018 11:00:00 21,8 12,6 22,8 20,0 17,1 6 3 18 10 NE 1024,6 19 0,0
19.06.2018 10:00:00 20,5 13,7 20,7 20,0 17,2 4 2 13 7 ESE 1025,0 20 0,0
19.06.2018 09:00:00 17,6 14,7 16,2 20,1 17,2 4 2 9 5 NW 1025,7 20 0,0
19.06.2018 08:00:00 15,2 13,9 14,4 20,2 17,2 3 2 9 5 WNW 1025,9 20 0,0
19.06.2018 07:00:00 13,9 13,3 11,4 20,4 17,2 2 1 7 4 SSE 1025,9 20 0,0
19.06.2018 06:00:00 12,7 12,1 10,3 20,5 17,2 5 3 8 5 WSW 1025,9 15 0,0
19.06.2018 05:00:00 12,9 11,8 10,5 20,6 17,2 3 1 12 6 ESE 1025,5 16 0,2
19.06.2018 04:00:00 13,6 12,5 11,2 20,8 17,2 2 1 13 7 W 1025,3 20 0,0
19.06.2018 03:00:00 14,5 13,0 12,9 20,9 17,2 9 5 14 8 WSW 1025,1 20 0,0
19.06.2018 02:00:00 14,3 13,0 12,9 21,0 17,2 8 4 13 7 SW 1024,8 20 0,0
19.06.2018 01:00:00 14,7 12,7 12,9 21,2 17,2 8 4 12 7 WSW 1024,7 20 0,0
19.06.2018 00:00:00 16,3 13,2 14,3 21,3 17,2 7 4 15 8 W 1024,5 20 0,0
18.06.2018 23:00:00 16,6 13,1 14,5 21,4 17,2 8 4 14 8 W 1024,3 20 0,0
18.06.2018 22:00:00 17,9 12,8 16,0 21,4 17,2 8 4 19 11 W 1023,7 20 0,0
18.06.2018 21:00:00 19,7 12,5 18,6 21,4 17,1 9 5 22 12 W 1023,0 20 0,0
18.06.2018 20:00:00 21,2 12,3 20,4 21,3 17,1 13 7 27 15 WNW 1022,5 20 0,0
18.06.2018 19:00:00 21,9 12,2 24,6 21,1 17,2 15 8 28 15 WNW 1022,2 20 0,0
18.06.2018 18:00:00 22,5 11,9 25,8 20,9 17,2 15 8 31 17 W 1022,1 20 0,0
18.06.2018 17:00:00 23,2 11,9 28,1 20,6 17,2 12 6 25 13 W 1021,9 20 0,0
18.06.2018 16:00:00 23,1 12,7 23,9 20,4 17,2 13 7 27 15 W 1022,0 20 0,0

tt = temperature
td = dewpoint
tt 5cm = temperature 5cm
tt -20cm = temperature -20cm
tt -100cm = temperature -100cm
ff = wind speed
fx = gusts
dd = wind direction
ppp = reduced air pressure
vv = visibility
rr = precipitation

Next stations